TimeCDT,TemperatureF,Dew PointF,Humidity,Sea Level PressureIn,VisibilityMPH,Wind Direction,Wind SpeedMPH,Gust SpeedMPH,PrecipitationIn,Events,Conditions,WindDirDegrees,DateUTC
12:15 AM,55.4,48.2,77,29.95,10.0,ESE,3.5,-,N/A,,Clear,120,2013-09-23 05:15:00
12:35 AM,53.6,48.2,82,29.95,10.0,ESE,3.5,-,N/A,,Clear,110,2013-09-23 05:35:00
12:55 AM,53.6,48.2,82,29.95,10.0,Calm,Calm,-,N/A,,Clear,0,2013-09-23 05:55:00
1:15 AM,51.8,48.2,88,29.95,10.0,ESE,3.5,-,N/A,,Clear,120,2013-09-23 06:15:00
1:35 AM,51.8,48.2,88,29.95,10.0,Calm,Calm,-,N/A,,Clear,0,2013-09-23 06:35:00
1:55 AM,51.8,48.2,88,29.95,10.0,Calm,Calm,-,N/A,,Clear,0,2013-09-23 06:55:00
2:15 AM,51.8,48.2,88,29.95,10.0,Calm,Calm,-,N/A,,Clear,0,2013-09-23 07:15:00
2:35 AM,50.0,46.4,87,29.95,10.0,Calm,Calm,-,N/A,,Clear,0,2013-09-23 07:35:00
2:55 AM,50.0,46.4,87,29.95,10.0,Calm,Calm,-,N/A,,Clear,0,2013-09-23 07:55:00
3:15 AM,50.0,46.4,87,29.95,10.0,SE,3.5,-,N/A,,Clear,130,2013-09-23 08:15:00
3:35 AM,51.8,46.4,82,29.95,10.0,ESE,4.6,-,N/A,,Clear,110,2013-09-23 08:35:00
3:55 AM,51.8,46.4,82,29.95,10.0,ESE,3.5,-,N/A,,Clear,120,2013-09-23 08:55:00
4:15 AM,50.0,46.4,87,29.96,10.0,SE,3.5,-,N/A,,Clear,130,2013-09-23 09:15:00
4:35 AM,50.0,46.4,87,29.96,10.0,SE,3.5,-,N/A,,Clear,140,2013-09-23 09:35:00
4:55 AM,50.0,46.4,87,29.97,10.0,SE,3.5,-,N/A,,Clear,140,2013-09-23 09:55:00
5:15 AM,48.2,44.6,87,29.97,10.0,Calm,Calm,-,N/A,,Clear,0,2013-09-23 10:15:00
5:35 AM,50.0,46.4,87,29.97,10.0,SE,4.6,-,N/A,,Clear,130,2013-09-23 10:35:00
5:55 AM,50.0,46.4,87,29.97,10.0,Calm,Calm,-,N/A,,Clear,0,2013-09-23 10:55:00
6:15 AM,48.2,44.6,87,29.98,10.0,Calm,Calm,-,N/A,,Clear,0,2013-09-23 11:15:00
6:35 AM,48.2,44.6,87,29.99,10.0,Calm,Calm,-,N/A,,Clear,0,2013-09-23 11:35:00
6:55 AM,48.2,44.6,87,29.99,10.0,Calm,Calm,-,N/A,,Clear,0,2013-09-23 11:55:00
7:15 AM,48.2,44.6,87,30.00,10.0,Calm,Calm,-,N/A,,Clear,0,2013-09-23 12:15:00
7:35 AM,48.2,46.4,93,30.00,10.0,SSE,3.5,-,N/A,,Clear,150,2013-09-23 12:35:00
7:55 AM,51.8,46.4,82,30.00,10.0,Calm,Calm,-,N/A,,Clear,0,2013-09-23 12:55:00
8:15 AM,51.8,48.2,88,30.00,10.0,SSE,4.6,-,N/A,,Clear,150,2013-09-23 13:15:00
8:35 AM,53.6,48.2,82,29.99,10.0,SSE,3.5,-,N/A,,Clear,150,2013-09-23 13:35:00
8:55 AM,55.4,50.0,82,30.00,10.0,SE,3.5,-,N/A,,Clear,140,2013-09-23 13:55:00
9:15 AM,57.2,50.0,77,30.00,10.0,SE,3.5,-,N/A,,Clear,140,2013-09-23 14:15:00
9:35 AM,60.8,51.8,72,30.01,10.0,SSW,4.6,-,N/A,,Clear,200,2013-09-23 14:35:00
9:55 AM,62.6,53.6,72,30.00,10.0,SSE,5.8,-,N/A,,Clear,160,2013-09-23 14:55:00
10:15 AM,64.4,53.6,68,30.00,10.0,South,4.6,-,N/A,,Clear,170,2013-09-23 15:15:00
10:35 AM,66.2,51.8,60,30.00,10.0,South,8.1,-,N/A,,Clear,170,2013-09-23 15:35:00
10:55 AM,68.0,51.8,56,29.99,10.0,SSE,11.5,16.1,N/A,,Clear,160,2013-09-23 15:55:00
11:15 AM,69.8,50.0,49,29.99,10.0,SSE,5.8,-,N/A,,Clear,150,2013-09-23 16:15:00
11:35 AM,69.8,50.0,49,29.99,10.0,SE,8.1,-,N/A,,Clear,130,2013-09-23 16:35:00
11:55 AM,69.8,50.0,49,29.99,10.0,SE,6.9,-,N/A,,Clear,140,2013-09-23 16:55:00
12:15 PM,71.6,50.0,46,29.98,10.0,South,5.8,-,N/A,,Clear,170,2013-09-23 17:15:00
12:35 PM,71.6,50.0,46,29.98,10.0,SE,8.1,-,N/A,,Clear,140,2013-09-23 17:35:00
12:55 PM,73.4,51.8,47,29.97,10.0,SSE,4.6,-,N/A,,Clear,160,2013-09-23 17:55:00
1:15 PM,73.4,51.8,47,29.96,10.0,ESE,6.9,-,N/A,,Clear,120,2013-09-23 18:15:00
1:35 PM,73.4,51.8,47,29.95,10.0,SSE,8.1,-,N/A,,Clear,160,2013-09-23 18:35:00
1:55 PM,73.4,51.8,47,29.94,10.0,SSE,4.6,-,N/A,,Clear,150,2013-09-23 18:55:00
2:15 PM,73.4,50.0,44,29.93,10.0,South,9.2,-,N/A,,Clear,180,2013-09-23 19:15:00
2:35 PM,75.2,51.8,44,29.92,10.0,East,5.8,-,N/A,,Clear,90,2013-09-23 19:35:00
2:55 PM,75.2,51.8,44,29.92,10.0,South,6.9,17.3,N/A,,Clear,170,2013-09-23 19:55:00
3:15 PM,75.2,51.8,44,29.91,10.0,ESE,6.9,-,N/A,,Clear,120,2013-09-23 20:15:00
3:35 PM,75.2,51.8,44,29.91,10.0,East,10.4,-,N/A,,Clear,100,2013-09-23 20:35:00
3:55 PM,75.2,51.8,44,29.91,10.0,SE,8.1,17.3,N/A,,Clear,130,2013-09-23 20:55:00
4:15 PM,77.0,51.8,41,29.90,10.0,ESE,10.4,-,N/A,,Clear,120,2013-09-23 21:15:00
4:35 PM,75.2,50.0,41,29.89,10.0,SE,9.2,-,N/A,,Clear,130,2013-09-23 21:35:00
4:55 PM,75.2,48.2,38,29.89,10.0,ESE,12.7,16.1,N/A,,Clear,110,2013-09-23 21:55:00
5:15 PM,75.2,48.2,38,29.88,10.0,SE,8.1,-,N/A,,Clear,130,2013-09-23 22:15:00
5:35 PM,75.2,50.0,41,29.88,10.0,SE,8.1,-,N/A,,Clear,130,2013-09-23 22:35:00
5:55 PM,75.2,48.2,38,29.87,10.0,ESE,8.1,16.1,N/A,,Clear,120,2013-09-23 22:55:00
6:15 PM,73.4,48.2,41,29.88,10.0,ESE,8.1,-,N/A,,Clear,120,2013-09-23 23:15:00
6:35 PM,73.4,50.0,44,29.88,10.0,ESE,6.9,-,N/A,,Clear,110,2013-09-23 23:35:00
6:55 PM,71.6,50.0,46,29.88,10.0,East,5.8,-,N/A,,Clear,100,2013-09-23 23:55:00
7:15 PM,69.8,51.8,53,29.88,10.0,ESE,4.6,-,N/A,,Clear,110,2013-09-24 00:15:00
7:35 PM,68.0,50.0,52,29.89,10.0,ESE,3.5,-,N/A,,Clear,110,2013-09-24 00:35:00
7:55 PM,66.2,51.8,60,29.89,10.0,ESE,4.6,-,N/A,,Clear,120,2013-09-24 00:55:00
8:15 PM,66.2,50.0,56,29.91,10.0,SE,3.5,-,N/A,,Clear,130,2013-09-24 01:15:00
8:35 PM,64.4,51.8,64,29.92,10.0,ESE,3.5,-,N/A,,Clear,110,2013-09-24 01:35:00
8:55 PM,62.6,51.8,68,29.92,10.0,ESE,3.5,-,N/A,,Clear,110,2013-09-24 01:55:00
9:15 PM,62.6,51.8,68,29.92,10.0,ESE,3.5,-,N/A,,Clear,120,2013-09-24 02:15:00
9:35 PM,62.6,51.8,68,29.92,10.0,SE,4.6,-,N/A,,Clear,130,2013-09-24 02:35:00
9:55 PM,60.8,51.8,72,29.93,10.0,SE,4.6,-,N/A,,Clear,140,2013-09-24 02:55:00
10:15 PM,62.6,50.0,63,29.93,10.0,SE,4.6,-,N/A,,Clear,130,2013-09-24 03:15:00
10:35 PM,62.6,51.8,68,29.95,10.0,SW,4.6,-,N/A,,Clear,230,2013-09-24 03:35:00
10:55 PM,57.2,51.8,82,29.95,10.0,South,3.5,-,N/A,,Clear,170,2013-09-24 03:55:00
11:15 PM,57.2,50.0,77,29.95,10.0,SSE,3.5,-,N/A,,Clear,150,2013-09-24 04:15:00
11:35 PM,59.0,51.8,77,29.94,10.0,Calm,Calm,-,N/A,,Clear,0,2013-09-24 04:35:00
11:55 PM,57.2,50.0,77,29.94,10.0,ESE,5.8,-,N/A,,Clear,110,2013-09-24 04:55:00